Change the Weather History Date:

Thursday, May 2, 2013

  Actual Average Record
Temperature  
Mean Temperature 46 °F -  
Max Temperature 56 °F 78 °F 99 °F (2012)
Min Temperature 39 °F 53 °F 39 °F (2011)
Degree Days  
Heating Degree Days 18    
Moisture  
Dew Point 34 °F    
Average Humidity 74    
Maximum Humidity 93    
Minimum Humidity 33    
Precipitation  
Precipitation 0.17 in - - ()
Sea Level Pressure  
Sea Level Pressure 30.35 in    
Wind  
Wind Speed 27 mph (North)    
Max Wind Speed 33 mph    
Max Gust Speed 50 mph    
Visibility 10 miles    
Events Rain , Thunderstorm    
Averages and records for this station are not official NWS values.
T = Trace of Precipitation, MM = Missing Value Source: NWS Daily Summary

Daily Weather History Graph

Daily Weather History Graph

Search for Another Location

Airport or City:

Trip Planner

Search our weather history database for the weather conditions in past years. The results will help you decide how hot, cold, wet, or windy it might be!

Date:

Astronomy

May. 02, 2013 Rise Set
Actual Time 6:45 AM CDT 8:23 PM CDT
Civil Twilight 6:18 AM CDT 8:50 PM CDT
Nautical Twilight 5:46 AM CDT 9:22 PM CDT
Astronomical Twilight 5:11 AM CDT 9:57 PM CDT
Moon 2:15 AM CDT (5/2) 1:31 PM CDT (5/2)
Length of Visible Light 14h 31m
Length of Day
13h 37m
Waning Gibbous, 47% of the Moon is Illuminated
May 2
Waning Gibbous
May 9
New
May 17
First Quarter
May 24
Full
May 31
Last Quarter

Hourly Weather History & Observations

Time (CDT) Temp. Windchill Dew Point Humidity Pressure Visibility Wind Dir Wind Speed Gust Speed Precip Events Conditions
12:29 AM 44.6 °F 35.3 °F 37.4 °F 76% 30.19 in 10.0 mi North 26.5 mph 35.7 mph N/A Rain Light Rain
12:49 AM 44.6 °F 35.5 °F 37.4 °F 76% 30.22 in 10.0 mi North 25.3 mph 36.8 mph N/A   Overcast
12:54 AM 42.8 °F 32.9 °F 37.4 °F 81% 30.22 in 10.0 mi North 26.5 mph 38.0 mph N/A   Overcast
12:58 AM 43.7 °F 33.9 °F 37.0 °F 77% 30.20 in 10.0 mi North 27.6 mph 38.0 mph 0.00 in   Overcast
1:01 AM 42.8 °F 31.9 °F 37.4 °F 81% 30.21 in 10.0 mi North 32.2 mph 38.0 mph N/A   Light Drizzle
1:15 AM 42.8 °F 32.9 °F 37.4 °F 81% 30.24 in 10.0 mi North 26.5 mph 36.8 mph N/A   Overcast
1:56 AM 42.8 °F 32.5 °F 35.6 °F 76% 30.27 in 10.0 mi North 28.8 mph 40.3 mph N/A   Overcast
2:27 AM 42.8 °F 32.3 °F 35.6 °F 76% 30.27 in 10.0 mi North 29.9 mph 36.8 mph N/A   Overcast
2:41 AM 41.0 °F 30.7 °F 35.6 °F 81% 30.26 in 10.0 mi North 25.3 mph 35.7 mph N/A Rain Light Rain
2:58 AM 41.4 °F 30.9 °F 36.3 °F 82% 30.25 in 10.0 mi North 26.5 mph 38.0 mph 0.00 in Rain Light Rain
3:03 AM 41.0 °F 29.7 °F 35.6 °F 81% 30.26 in 10.0 mi North 31.1 mph 35.7 mph N/A   Overcast
3:20 AM 41.0 °F 29.3 °F 35.6 °F 81% 30.26 in 10.0 mi North 33.4 mph 39.1 mph N/A Rain Light Rain
3:25 AM 41.0 °F 30.2 °F 35.6 °F 81% 30.26 in 10.0 mi North 27.6 mph 39.1 mph N/A Rain Light Rain
3:30 AM 41.0 °F 29.7 °F 35.6 °F 81% 30.26 in 10.0 mi North 31.1 mph 35.7 mph N/A Rain Light Rain
3:35 AM 41.0 °F 30.5 °F 35.6 °F 81% 30.26 in 10.0 mi North 26.5 mph 39.1 mph N/A Rain Light Rain
3:58 AM 40.3 °F 28.9 °F 37.2 °F 89% 30.25 in 10.0 mi North 29.9 mph 36.8 mph 0.00 in Rain Light Rain
4:52 AM 39.2 °F 27.2 °F 37.4 °F 93% 30.29 in 10.0 mi North 31.1 mph 36.8 mph N/A Rain Light Rain
4:57 AM 39.2 °F 28.5 °F 37.4 °F 93% 30.30 in 10.0 mi North 24.2 mph 38.0 mph N/A Rain Light Rain
4:58 AM 39.7 °F 29.0 °F 37.6 °F 92% 30.28 in 10.0 mi North 25.3 mph 38.0 mph 0.04 in Rain Light Rain
5:08 AM 39.2 °F 27.4 °F 37.4 °F 93% 30.31 in 10.0 mi North 29.9 mph 40.3 mph N/A Rain Light Rain
5:09 AM 39.2 °F 27.4 °F 37.4 °F 93% 30.31 in 10.0 mi North 29.9 mph 40.3 mph N/A   Overcast
5:14 AM 39.2 °F 27.8 °F 37.4 °F 93% 30.31 in 10.0 mi North 27.6 mph 40.3 mph N/A   Overcast
5:19 AM 39.2 °F 28.3 °F 37.4 °F 93% 30.31 in 10.0 mi North 25.3 mph 39.1 mph N/A   Overcast
5:24 AM 39.2 °F 28.0 °F 37.4 °F 93% 30.31 in 10.0 mi North 26.5 mph 36.8 mph N/A   Overcast
5:29 AM 41.0 °F 29.7 °F 37.4 °F 87% 30.30 in 10.0 mi North 31.1 mph 36.8 mph N/A   Overcast
5:50 AM 41.0 °F 30.0 °F 37.4 °F 87% 30.31 in 10.0 mi North 28.8 mph 42.6 mph N/A Rain Light Rain
5:58 AM 40.3 °F 29.5 °F 36.3 °F 86% 30.31 in 10.0 mi North 26.5 mph 38.0 mph 0.02 in Rain Light Rain
6:25 AM 39.2 °F 27.4 °F 35.6 °F 87% 30.31 in 10.0 mi North 29.9 mph 40.3 mph N/A   Overcast
6:50 AM 39.2 °F 27.8 °F 35.6 °F 87% 30.34 in 10.0 mi North 27.6 mph 35.7 mph N/A   Squalls
6:58 AM 39.9 °F 28.6 °F 35.6 °F 85% 30.34 in 10.0 mi North 28.8 mph 36.8 mph 0.02 in   Overcast
7:01 AM 39.2 °F 27.6 °F 35.6 °F 87% 30.34 in 10.0 mi North 28.8 mph 36.8 mph N/A Rain Light Rain
7:25 AM 39.2 °F 27.6 °F 35.6 °F 87% 30.34 in 10.0 mi North 28.8 mph 38.0 mph N/A   Overcast
7:43 AM 41.0 °F 30.9 °F 35.6 °F 81% 30.41 in 10.0 mi NNW 24.2 mph 39.1 mph N/A Rain Light Rain
7:56 AM 39.2 °F 27.0 °F 35.6 °F 87% 30.37 in 5.0 mi North 32.2 mph 39.1 mph N/A Rain , Thunderstorm Thunderstorms and Rain
7:58 AM 40.1 °F 29.5 °F 36.0 °F 85% 30.39 in 10.0 mi North 25.3 mph 39.1 mph 0.00 in Rain , Thunderstorm Light Thunderstorms and Rain
8:15 AM 39.2 °F 27.0 °F 37.4 °F 93% 30.35 in 4.0 mi North 32.2 mph 43.7 mph N/A   Overcast
8:42 AM 39.2 °F 28.0 °F 37.4 °F 93% 30.39 in 10.0 mi North 26.5 mph 35.7 mph N/A   Overcast
8:58 AM 40.1 °F 29.2 °F 36.9 °F 88% 30.40 in 10.0 mi North 26.5 mph 34.5 mph 0.07 in   Overcast
9:18 AM 41.0 °F 30.7 °F 37.4 °F 87% 30.39 in 10.0 mi North 25.3 mph 44.9 mph N/A Rain Light Rain
9:37 AM 41.0 °F 31.1 °F 35.6 °F 81% 30.42 in 10.0 mi North 23.0 mph 39.1 mph N/A   Overcast
9:58 AM 40.5 °F 28.6 °F 36.1 °F 85% 30.42 in 10.0 mi North 33.4 mph 39.1 mph 0.00 in   Overcast
10:02 AM 41.0 °F 30.7 °F 35.6 °F 81% 30.41 in 10.0 mi North 25.3 mph 39.1 mph N/A Rain Light Rain
10:11 AM 41.0 °F 29.8 °F 35.6 °F 81% 30.42 in 10.0 mi North 29.9 mph 41.4 mph N/A   Overcast
10:26 AM 41.0 °F 30.7 °F 35.6 °F 81% 30.42 in 10.0 mi North 25.3 mph 39.1 mph N/A   Overcast
10:58 AM 41.2 °F 30.7 °F 34.9 °F 78% 30.45 in 10.0 mi North 26.5 mph 43.7 mph 0.02 in   Overcast
11:55 AM 42.8 °F 32.1 °F 32.0 °F 66% 30.48 in 10.0 mi North 31.1 mph 49.5 mph N/A   Overcast
12:56 PM 44.6 °F 34.2 °F 32.0 °F 61% 30.48 in 10.0 mi North 33.4 mph 48.3 mph N/A   Overcast
1:14 PM 44.6 °F 35.3 °F 32.0 °F 61% 30.46 in 10.0 mi North 26.5 mph 36.8 mph N/A   Overcast
1:51 PM 46.4 °F 36.9 °F 32.0 °F 57% 30.45 in 10.0 mi North 32.2 mph 43.7 mph N/A   Overcast
1:58 PM 46.8 °F - 33.1 °F 59% 30.45 in 10.0 mi North 31.1 mph 44.9 mph N/A   Overcast
2:55 PM 50.0 °F - 32.0 °F 50% 30.46 in 10.0 mi North 31.1 mph 42.6 mph N/A   Squalls
2:58 PM 50.2 °F - 33.3 °F 52% 30.46 in 10.0 mi North 31.1 mph 44.9 mph N/A   Overcast
3:58 PM 52.0 °F - 31.6 °F 46% 30.46 in 10.0 mi North 31.1 mph 41.4 mph N/A   Overcast
4:38 PM 53.6 °F - 32.0 °F 44% 30.43 in 10.0 mi North 25.3 mph 38.0 mph N/A   Overcast
4:58 PM 54.3 °F - 30.4 °F 40% 30.43 in 10.0 mi North 27.6 mph 35.7 mph N/A   Overcast
5:33 PM 53.6 °F - 28.4 °F 38% 30.42 in 10.0 mi North 28.8 mph 34.5 mph N/A   Scattered Clouds
5:48 PM 53.6 °F - 28.4 °F 38% 30.42 in 10.0 mi North 25.3 mph 35.7 mph N/A   Mostly Cloudy
5:58 PM 53.6 °F - 27.5 °F 37% 30.43 in 10.0 mi North 27.6 mph 39.1 mph N/A   Mostly Cloudy
6:33 PM 53.6 °F - 26.6 °F 35% 30.41 in 10.0 mi North 26.5 mph 34.5 mph N/A   Scattered Clouds
6:58 PM 54.1 °F - 25.7 °F 33% 30.42 in 10.0 mi North 28.8 mph 36.8 mph N/A   Partly Cloudy
7:58 PM 51.8 °F - 25.2 °F 36% 30.43 in 10.0 mi North 23.0 mph - N/A   Clear
8:58 PM 48.7 °F - 25.5 °F 40% 30.45 in 10.0 mi North 13.8 mph - N/A   Clear
9:58 PM 43.7 °F 38.6 °F 27.0 °F 52% 30.46 in 10.0 mi NNW 9.2 mph - N/A   Clear
10:58 PM 43.2 °F 38.4 °F 27.5 °F 54% 30.46 in 10.0 mi NNW 8.1 mph - N/A   Clear
11:58 PM 41.0 °F 35.2 °F 28.4 °F 61% 30.45 in 10.0 mi NW 9.2 mph - N/A   Clear